Regional Weather Roundup
Issued by NWS Newport/Morehead, NC

Current Version | Previous Version | Text Only | Print | Product List | Glossary On
Versions: 1 2 3 4 5 6 7 8 9 10 11 12 13 14 15 16 17 18 19 20 21 22 23 24 25 26 27 28 29 30 31 32 33 34 35 36 37 38 39 40 41 42 43 44 45 46 47 48 49 50
000 ASUS42 KMHX 072225 RWRMHX WEATHER ROUNDUP FOR EASTERN NORTH CAROLINA NATIONAL WEATHER SERVICE NEWPORT/MOREHEAD CITY NC 500 PM EST SUN FEB 07 2016 NOTE: "FAIR" INDICATES FEW OR NO CLOUDS BELOW 12,000 FEET WITH NO SIGNIFICANT WEATHER AND/OR OBSTRUCTIONS TO VISIBILITY NCZ015>017-031-032-045>047-102-103-072300- NORTH COAST CITY SKY/WX TMP DP RH WIND PRES REMARKS EDENTON LGT RAIN 39 36 88 N17G31 29.78F ELIZABETH CITY RAIN 40 37 89 N28G39 29.77F KITTY HAWK RAIN 44 41 91 N18G32 29.65F MANTEO RAIN 43 43 100 N30G47 29.64F $$ NCZ045>047-081-094-103-104-072300- CENTRAL COAST CITY SKY/WX TMP DP RH WIND PRES REMARKS FRISCO HVY RAIN 47 45 93 N18G39 29.52F FOG SWANQUARTER N/A 39 N/A N/A VRB21G40 29.62S $$ NCZ095-097-098-100-101-072300- SOUTHERN COAST CITY SKY/WX TMP DP RH WIND PRES REMARKS BEAUFORT HVY RAIN 39 36 89 N29G44 29.58F FOG CEDAR ISLAND N/A 43 N/A N/A NW31G66 29.62F JACKSONVILLE RAIN 36 32 85 N25G38 29.72R PINEY ISLAND LGT SNOW N/A N/A N/A N38G52 29.60F WILMINGTON LGT RAIN 36 31 82 N20G36 29.73R $$ NCZ011>013-027>030-043-044-078>080-089-090>093-098-072300- COASTAL PLAIN CITY SKY/WX TMP DP RH WIND PRES REMARKS AHOSKIE CLOUDY 40 24 52 N17G23 29.83F CLINTON LGT RAIN 37 33 86 N9G18 29.82S ELIZABETHTOWN LGT RAIN 37 34 89 NW7 29.82R GOLDSBORO CLOUDY 37 36 93 N9 29.79F GREENVILLE LGT RAIN 37 32 81 N14G22 29.83R HAVELOCK LGT RAIN 38 34 85 N33G44 29.66F FOG KENANSVILLE MIX PCPN 36 32 87 N9 29.81F KINSTON LGT RAIN 36 32 87 N15G22 29.80F NEW BERN HVY RAIN 36 33 89 N25G33 29.73S FOG RICHLANDS CLOUDY 36 27 69 NW17G26 29.75S ROCKY MOUNT CLOUDY 41 26 55 N16G26 29.83F WASHINGTON RAIN 36 32 87 N20 29.78R WHITEVILLE LGT RAIN 37 33 84 N6 29.82R $$ AMZ130-135-150-152-154-156-158-170-250-252-270-ANZ085-086-088-633-658-670-072300- MARINE OBSERVATIONS STATION/POSITION TIME TEMP WIND PRES WAVE SWELL AIR SEA DIR/SP/G HT/PER HT/PER (UTC) (F) (DEG/KT/KT) (MB) (FT/S) (FT/S) CHESAPEAKE LIGHT 2200 42 20/ 38/ 42 1008.8 64 E VA BEACH 2150 50 54 30/ 35/ 43 1004.0 13/ 8 2/14 DUCK 2200 43 44 10/ 35/ 44 1004.1 2 E DUCK 2211 45 N/A 11/ 8 2/11 OREGON INLET 2200 46 45 360/ 27/ 37 1002.1 13E OREGON INLT 2200 47 N/A 14/ 8 5/11 HATTERAS CG 2200 47 47 360/ 39/ 49 999.1 DIAMOND BUOY 2150 57 70 20/ 39/ 49 995.0 19/10 2/14 CAPE LOOKOUT NOT AVBL BEAUFORT LAB 2200 40 46 350/ 28/ 40 1000.5 30 SE NEW RVR IN 2108 41 60 996.1 30 SE NEW RVR IN 2125 60 N/A 17/ 8 7/11 27 SE WRIGHTSVLE 2208 39 360/ 41 997.3 5 SE WRIGHTSVLE 2108 39 52 350/ 35/ 47 1004.0 225 S CAPE HAT 2150 61 69 270/ 25/ 31 N/A 12/ 8 2/15 41 SE CHARLESTON 2150 45 66 330/ 35/ 43 1008.0 12/ 7 2/15 $$

USA.gov is the U.S. government's official web portal to all federal, state and local government web resources and services.